[[{"header":{"parameterUnit":"m.s-1","parameterCategory":1,"la1":30.2991,"la2":30.254,"lo1":-89.0895,"lo2":-89.0444,"dy":0.0017,"dx":0.0017,"nx":28,"ny":28,"refTime":"2025-07-09T09:00:00:Z","depth":0,"parameterNumber":2,"parameterNumberName":"U-component_of_WINDS"},"data":[0,0,0,0,0,0,0,0,0,0,0,0,0,0,0,0,0,0,0,0,0,0,0,0,0,0,0,0,0,0,0,0,0,0,0,0,0,0,0,0,0,0,0,0,0,0,0,0,0,0,0,0,0,0,0,0,0,0,3.5661,3.5663,0,3.5856,3.5858,3.586,3.5833,3.583,3.5826,3.5823,3.6028,3.6037,3.6045,0,0,0,0,0,0,0,0,0,0,0,0,0,3.527,3.5277,3.5661,3.5663,3.5666,3.5855,3.5858,3.5861,3.5833,3.5829,3.5826,3.5822,3.6026,3.6036,3.6046,0,0,0,0,0,0,0,0,0,0,0,0,0,3.545,3.528,3.566,3.5675,3.5678,3.5855,3.5858,3.5861,3.5834,3.5829,3.5824,3.582,3.6022,3.6035,3.6047,3.6224,0,0,3.6086,3.6092,0,0,0,0,0,0,0,0,3.544,3.5464,3.567,3.5674,3.5678,3.5815,3.5795,3.5983,3.5836,3.5775,3.5823,3.5818,3.5962,3.5979,3.6027,3.6233,3.6242,3.6087,3.6095,3.6101,3.6104,0,0,0,0,0,0,0,3.5427,3.5456,3.5738,3.5673,3.5678,3.5673,3.5693,3.5831,3.5894,3.578,3.5779,3.5802,3.5963,3.6014,3.6031,3.6245,3.6087,3.6098,3.6106,3.6111,3.6606,3.6611,0,0,0,0,0,0,3.541,3.5445,3.5732,3.5744,3.5544,3.5684,3.5707,3.5776,3.5892,3.5905,3.5806,3.58,3.5995,3.6016,3.6038,3.6252,3.61,3.6112,3.612,3.66,3.6607,3.6613,0,0,0,0,0,0,3.5402,3.5436,3.5724,3.5594,3.5631,3.5696,3.5774,3.5782,3.5834,3.5911,3.5923,3.5846,3.5992,3.602,3.6177,3.6258,3.6118,3.613,3.6594,3.6602,3.661,3.668,0,0,0,0,0,0,3.5391,3.5433,3.55,3.5596,3.5638,3.5859,3.5779,3.579,3.5855,3.5849,3.5952,3.5965,3.599,3.6158,3.619,3.6273,3.614,3.6587,3.6598,3.6607,3.6671,3.669,3.6706,0,0,0,0,0,3.5377,3.5514,3.5503,3.5538,3.5722,3.5863,3.5887,3.5912,3.5862,3.593,3.598,3.5962,3.6244,3.6175,3.621,3.6299,3.6582,3.6594,3.6606,3.6663,3.6686,3.6706,0,0,0,0,0,0,3.5428,3.5526,3.5516,3.5688,3.5767,3.5858,3.5945,3.5936,3.6032,3.6023,3.6051,3.6075,3.6233,3.6282,3.6202,3.6475,3.6406,3.6426,3.6437,3.646,3.6477,3.6462,3.615,0,0,0,0,0,3.5458,3.5563,3.5644,3.5788,3.5828,3.588,3.5942,3.5954,3.6038,3.6072,3.6133,3.6217,3.6324,3.6395,3.6498,3.6678,3.67,3.6756,3.6774,3.6788,3.6805,3.6902,3.6928,3.6653,3.6653,3.6653,0,0,3.5524,3.5591,3.5656,3.58,3.5863,3.5971,3.5908,3.6027,3.6108,3.6091,3.6242,3.629,3.6385,3.6553,3.6631,3.6599,3.6885,3.6803,3.6814,3.6824,3.6918,3.6944,3.6967,3.6662,3.666,3.6659,0,0,3.5698,3.5759,3.5885,3.5948,3.6043,3.6077,3.6107,3.62,3.623,3.6381,3.637,3.6469,3.6654,3.6721,3.678,3.6979,3.6966,3.7012,3.7104,3.7199,3.722,3.7239,3.731,3.7335,3.7029,3.7029,3.7029,0,3.5768,3.593,3.5951,3.607,3.6134,3.6121,3.6249,3.631,3.6435,3.648,3.6442,3.6672,3.6736,3.692,3.6968,3.7016,3.7052,3.7,3.7215,3.7235,3.7253,3.732,3.7347,3.7034,3.7033,3.7033,3.7032,0,3.601,3.6123,3.6213,3.6331,3.6405,3.6529,3.6569,3.6642,3.6648,3.6685,3.684,3.6915,3.7033,3.7077,3.7085,3.7263,3.7239,3.7208,3.714,3.7284,3.7347,3.7373,3.7041,3.7039,3.7038,3.7036,0,0,3.6223,3.635,3.6383,3.6435,3.6539,3.6627,3.675,3.6862,3.6924,3.7011,3.7114,3.727,3.7241,3.7308,3.7323,3.7406,3.7558,3.7365,3.7367,3.7398,3.7758,3.778,3.7809,3.755,3.7555,3.7559,3.7749,0,3.6407,3.6621,3.6643,3.6835,3.6939,3.6928,3.7035,3.7111,3.7149,3.7244,3.7287,3.7397,3.7351,3.7391,3.7472,3.7522,3.7631,3.7509,3.7648,3.7652,3.7623,3.7843,3.7868,3.8043,3.7774,3.7779,3.7782,0,3.665,3.674,3.6942,3.703,3.7074,3.717,3.7274,3.7365,3.7451,3.7473,3.7546,3.755,3.7677,3.7604,3.778,3.7697,3.7755,3.7788,3.7795,3.7809,3.7725,3.7862,3.81,3.8126,3.7821,3.7818,3.7815,0,3.6784,3.6957,3.7099,3.7145,3.7251,3.7318,3.7365,3.7446,3.7512,3.7604,3.7648,3.7754,3.7813,3.7896,3.7929,3.7872,3.8103,3.8033,3.8126,3.8125,3.8175,3.8171,3.8425,3.8213,3.8213,3.8212,3.8212,0,3.6986,3.711,3.716,3.7248,3.7386,3.7411,3.7548,3.7593,3.7664,3.7762,3.7759,3.7851,3.7889,3.7987,3.8014,3.8155,3.8182,3.8204,3.8209,3.8204,3.8201,3.8242,3.8231,3.8219,3.8218,3.8216,3.8215,0,3.7159,3.7198,3.7352,3.7439,3.7463,3.7562,3.7636,3.7722,3.7758,3.7881,3.7912,3.797,3.8085,3.8125,3.8266,3.8284,3.8448,3.8444,3.8418,3.8419,3.851,3.8501,3.8799,3.8839,3.8601,3.8603,3.8605,0,3.7286,3.738,3.7476,3.754,3.7589,3.7692,3.7759,3.7787,3.7857,3.7961,3.8034,3.8147,3.824,3.8424,3.848,3.8587,3.8585,3.8682,3.8602,3.8593,3.8586,3.858,3.8589,3.8698,3.87,3.8702,3.8704,0,3.7506,3.752,3.7615,3.7717,3.7796,3.7878,3.7958,3.801,3.8051,3.8129,3.8245,3.8317,3.8459,3.8572,3.8681,3.8732,3.8726,3.8728,3.8756,3.8751,3.8732,3.8743,3.8459,3.8722,3.872,3.8718,3.8718,3.8717,3.7659,3.7742,3.7822,3.7928,3.799,3.8064,3.8148,3.8194,3.8291,3.8407,3.8418,3.8543,3.8626,3.8772,3.8828,3.8927,3.89,3.894,3.895,3.8959,3.8965,3.8716,3.8947,3.8947,3.8946,3.8946,3.8946,0,3.7879,3.7929,3.8026,3.8136,3.8219,3.8203,3.829,3.8361,3.8471,3.8548,3.8638,3.8771,3.888,3.8944,3.9054,3.9121,3.9121,3.9149,3.9144,3.9156,3.8983,3.8948,3.9147,3.9147,3.9147,3.9147,3.9147,3.9147,3.8003,3.8141,3.8165,3.8335,3.8385,3.8505,3.8556,3.8625,3.8686,3.8834,3.8924,3.8964,3.9036,3.9151,3.925,3.9267,3.9307,3.9338,3.9351,3.9189,3.9168,3.9148,3.9116,3.9347,3.9347,3.9516,3.9517,3.9519]},{"header":{"parameterUnit":"m.s-1","parameterCategory":1,"la1":30.2991,"la2":30.254,"lo1":-89.0895,"lo2":-89.0444,"dy":0.0017,"dx":0.0017,"nx":28,"ny":28,"refTime":"2025-07-09T09:00:00:Z","depth":0,"parameterNumber":3,"parameterNumberName":"V-component_of_WINDS"},"data":[0,0,0,0,0,0,0,0,0,0,0,0,0,0,0,0,0,0,0,0,0,0,0,0,0,0,0,0,0,0,0,0,0,0,0,0,0,0,0,0,0,0,0,0,0,0,0,0,0,0,0,0,0,0,0,0,0,0,2.636,2.6363,0,2.6592,2.6595,2.6597,2.6627,2.6624,2.6622,2.662,2.6864,2.6872,2.6881,0,0,0,0,0,0,0,0,0,0,0,0,0,2.5948,2.5955,2.636,2.6363,2.6366,2.6592,2.6595,2.6598,2.6627,2.6624,2.6622,2.6619,2.6861,2.6871,2.6881,0,0,0,0,0,0,0,0,0,0,0,0,0,2.6148,2.5957,2.636,2.6407,2.6414,2.6591,2.6595,2.6599,2.6628,2.6624,2.6621,2.6618,2.6857,2.687,2.6883,2.703,0,0,2.6922,2.6928,0,0,0,0,0,0,0,0,2.6137,2.6163,2.6397,2.6404,2.6412,2.6577,2.6539,2.6744,2.6628,2.6547,2.662,2.6616,2.6771,2.6791,2.6842,2.7042,2.7052,2.6923,2.6931,2.6937,2.694,0,0,0,0,0,0,0,2.6123,2.6153,2.6452,2.6401,2.641,2.6419,2.6444,2.6578,2.6676,2.6554,2.6556,2.6583,2.6775,2.683,2.6848,2.7056,2.6923,2.6934,2.6942,2.6947,2.7387,2.7391,0,0,0,0,0,0,2.6099,2.6141,2.6445,2.6459,2.6263,2.6429,2.6457,2.6528,2.6674,2.6693,2.6586,2.6583,2.6809,2.6833,2.6857,2.704,2.6936,2.6949,2.6956,2.7384,2.7388,2.7393,0,0,0,0,0,0,2.609,2.6126,2.6435,2.6301,2.6341,2.644,2.6519,2.6534,2.6589,2.6698,2.6716,2.6624,2.6808,2.6839,2.6986,2.7048,2.6954,2.6966,2.7379,2.7385,2.739,2.7405,0,0,0,0,0,0,2.6078,2.6122,2.6178,2.6302,2.6348,2.656,2.6523,2.6541,2.661,2.661,2.6739,2.6757,2.6807,2.6967,2.6999,2.7064,2.6976,2.7374,2.7382,2.7389,2.74,2.7411,2.7421,0,0,0,0,0,2.6063,2.6175,2.6181,2.6218,2.642,2.6563,2.659,2.6644,2.6615,2.6673,2.6743,2.6753,2.7036,2.6982,2.7018,2.7088,2.737,2.7379,2.7388,2.7395,2.7409,2.742,0,0,0,0,0,0,2.6059,2.6192,2.62,2.6355,2.6447,2.6568,2.6642,2.6657,2.6761,2.6756,2.6821,2.685,2.6995,2.7056,2.6994,2.7239,2.7201,2.7217,2.7193,2.7207,2.7218,2.7201,2.6987,0,0,0,0,0,2.6075,2.6178,2.629,2.6416,2.6461,2.6543,2.6608,2.6641,2.6741,2.6781,2.6861,2.6959,2.707,2.7142,2.725,2.7408,2.7437,2.7474,2.7484,2.7492,2.7507,2.7595,2.7613,2.7422,2.7422,2.7422,0,0,2.6111,2.6197,2.6259,2.6417,2.6492,2.6599,2.6576,2.6691,2.6772,2.6799,2.6943,2.7005,2.7118,2.7271,2.7343,2.7327,2.7566,2.7504,2.7509,2.752,2.7606,2.7624,2.7641,2.7428,2.7427,2.7426,0,0,2.6232,2.6306,2.6419,2.6494,2.6608,2.6662,2.6688,2.6807,2.6849,2.6993,2.7016,2.7113,2.7303,2.7382,2.7448,2.7596,2.7609,2.7629,2.7685,2.777,2.7786,2.7799,2.7853,2.7872,2.7643,2.7643,2.7643,0,2.6264,2.6424,2.6476,2.6589,2.6659,2.6685,2.68,2.6872,2.7015,2.7063,2.7043,2.728,2.7358,2.7531,2.7567,2.7618,2.7652,2.7616,2.7779,2.7793,2.7807,2.7859,2.7879,2.7645,2.7645,2.7644,2.7644,0,2.6457,2.6568,2.6646,2.6781,2.6859,2.6973,2.7044,2.7117,2.7143,2.7199,2.7346,2.744,2.7568,2.7611,2.7638,2.7787,2.7774,2.7765,2.7729,2.7826,2.7876,2.7896,2.7647,2.7647,2.7646,2.7646,0,0,2.6584,2.6745,2.6773,2.6834,2.696,2.7048,2.7163,2.7285,2.7347,2.7445,2.7544,2.7703,2.7695,2.7769,2.7806,2.788,2.7993,2.7863,2.7866,2.7885,2.8164,2.8171,2.8193,2.8001,2.8005,2.8008,2.8155,0,2.6721,2.6924,2.6974,2.7149,2.7252,2.7278,2.7378,2.7467,2.7522,2.762,2.7681,2.7793,2.7774,2.7819,2.7893,2.7963,2.805,2.7953,2.8096,2.8101,2.8069,2.8219,2.8227,2.8361,2.8174,2.8178,2.818,0,2.6907,2.7006,2.7191,2.7303,2.7348,2.7437,2.7553,2.7645,2.7746,2.7781,2.7862,2.7891,2.8014,2.7968,2.8139,2.8071,2.8133,2.8176,2.8182,2.8199,2.8148,2.8242,2.8405,2.8425,2.8212,2.8209,2.8207,0,2.6983,2.7162,2.7296,2.7348,2.7481,2.7543,2.7602,2.77,2.777,2.7871,2.7918,2.8033,2.8096,2.8185,2.8245,2.8206,2.841,2.837,2.8445,2.8443,2.8489,2.8485,2.8665,2.8525,2.8524,2.8524,2.8524,0,2.7131,2.7243,2.7331,2.7414,2.7541,2.7596,2.7721,2.7781,2.7867,2.7963,2.7992,2.8082,2.8154,2.8254,2.8301,2.8435,2.8463,2.8496,2.8508,2.8495,2.8491,2.8538,2.8531,2.8529,2.8528,2.8527,2.8526,0,2.7238,2.7301,2.7448,2.7561,2.7592,2.7681,2.7778,2.786,2.7915,2.8035,2.8067,2.8154,2.8273,2.834,2.849,2.8522,2.8672,2.8678,2.8637,2.8643,2.8713,2.8706,2.8931,2.8964,2.88,2.8801,2.8802,0,2.7329,2.7416,2.7536,2.7601,2.766,2.7765,2.7836,2.7893,2.7966,2.8087,2.8155,2.8275,2.8374,2.8563,2.8641,2.8756,2.8766,2.8837,2.8784,2.8768,2.8769,2.8764,2.8773,2.8847,2.8848,2.8849,2.885,0,2.7485,2.7511,2.7611,2.7721,2.7804,2.7895,2.7985,2.8037,2.811,2.8191,2.8311,2.8387,2.8539,2.8659,2.8779,2.8842,2.886,2.8866,2.8889,2.8878,2.8851,2.8868,2.8664,2.8861,2.886,2.8859,2.8859,2.8858,2.7588,2.7666,2.7763,2.7873,2.7946,2.8029,2.8111,2.8174,2.8275,2.8402,2.843,2.8557,2.8656,2.882,2.8885,2.8986,2.8974,2.9008,2.9017,2.9025,2.9028,2.8833,2.9009,2.9008,2.9008,2.9008,2.9008,0,2.7746,2.7809,2.7909,2.8033,2.8119,2.8124,2.8224,2.8297,2.8408,2.8497,2.8593,2.8732,2.8847,2.8932,2.9051,2.9116,2.9127,2.9145,2.9142,2.9156,2.9032,2.9,2.9134,2.9134,2.9134,2.9134,2.9134,2.9134,2.7839,2.7971,2.8009,2.8178,2.824,2.8363,2.842,2.8497,2.8568,2.8721,2.8816,2.887,2.8958,2.9083,2.9189,2.9211,2.9255,2.9272,2.9296,2.9178,2.9165,2.9152,2.9123,2.928,2.9281,2.9412,2.9413,2.9414]}]]